Change the Weather History Date:

Saturday, May 10, 2014

  Actual Average (KABI) Record (KABI)
Temperature  
Mean Temperature 78 °F 72 °F  
Max Temperature 98 °F 83 °F 107 °F (1967)
Min Temperature 57 °F 60 °F 44 °F (1997)
Degree Days  
Heating Degree Days 0 1  
Month to date heating degree days 10  
Since 1 July heating degree days 2552  
Cooling Degree Days 12 7  
Month to date cooling degree days 63  
Year to date cooling degree days 196  
Growing Degree Days 28 (Base 50)    
Moisture  
Dew Point 51 °F    
Average Humidity 44    
Maximum Humidity 82    
Minimum Humidity 13    
Precipitation  
Precipitation 0.00 in 0.09 in 4.15 in (1994)
Month to date precipitation 0.86  
Year to date precipitation 6.62  
Sea Level Pressure  
Sea Level Pressure 29.82 in    
Wind  
Wind Speed 9 mph (South)    
Max Wind Speed 20 mph    
Max Gust Speed 30 mph    
Visibility 10 miles    
Events      
T = Trace of Precipitation, MM = Missing Value Source: NWS Daily Summary

Daily Weather History Graph

Daily Weather History Graph

Search for Another Location

Airport or City:

Trip Planner

Search our weather history database for the weather conditions in past years. The results will help you decide how hot, cold, wet, or windy it might be!

Date:

Astronomy

May. 10, 2014 Rise Set
Actual Time 6:44 AM CDT 8:24 PM CDT
Civil Twilight 6:17 AM CDT 8:50 PM CDT
Nautical Twilight 5:45 AM CDT 9:22 PM CDT
Astronomical Twilight 5:12 AM CDT 9:56 PM CDT
Moon 4:35 PM CDT (5/10) 4:02 AM CDT (5/10)
Length of Visible Light 14h 33m
Length of Day
13h 40m
Waxing Gibbous, 82% of the Moon is Illuminated
May 10
Waxing Gibbous
May 14
Full
May 21
Last Quarter
May 28
New
Jun 5
First Quarter

Hourly Weather History & Observations

Time (CDT) Temp. Heat Index Dew Point Humidity Pressure Visibility Wind Dir Wind Speed Gust Speed Precip Events Conditions
12:15 AM 70.7 °F - 50.0 °F 48% 29.89 in 10.0 mi South 10.4 mph - N/A   Unknown
12:35 AM 70.0 °F - 50.2 °F 49% 29.89 in 10.0 mi South 9.2 mph - N/A   Unknown
12:55 AM 69.6 °F - 50.9 °F 51% 29.89 in 10.0 mi South 10.4 mph - N/A   Unknown
1:15 AM 69.4 °F - 51.4 °F 53% 29.89 in 10.0 mi South 10.4 mph - N/A   Unknown
1:35 AM 69.3 °F - 51.8 °F 54% 29.88 in 10.0 mi South 11.5 mph 17.3 mph N/A   Unknown
1:55 AM 68.4 °F - 52.0 °F 56% 29.88 in 10.0 mi South 8.1 mph - N/A   Unknown
2:15 AM 67.6 °F - 52.2 °F 58% 29.87 in 10.0 mi South 6.9 mph - N/A   Unknown
2:35 AM 66.4 °F - 52.3 °F 61% 29.87 in 10.0 mi South 8.1 mph - N/A   Unknown
2:55 AM 65.8 °F - 52.7 °F 62% 29.86 in 10.0 mi South 6.9 mph - N/A   Unknown
3:15 AM 64.8 °F - 52.7 °F 65% 29.86 in 10.0 mi SSW 4.6 mph - N/A   Unknown
3:35 AM 63.7 °F - 52.7 °F 67% 29.86 in 10.0 mi Calm Calm - N/A   Unknown
3:55 AM 63.5 °F - 52.3 °F 67% 29.86 in 10.0 mi Calm Calm - N/A   Unknown
4:15 AM 61.7 °F - 52.0 °F 70% 29.86 in 10.0 mi Calm Calm - N/A   Unknown
4:35 AM 61.5 °F - 52.3 °F 72% 29.86 in 10.0 mi Calm Calm - N/A   Unknown
4:55 AM 60.8 °F - 52.0 °F 73% 29.87 in 10.0 mi Calm Calm - N/A   Unknown
5:15 AM 60.4 °F - 52.2 °F 74% 29.86 in 10.0 mi Calm Calm - N/A   Unknown
5:35 AM 60.3 °F - 52.2 °F 75% 29.87 in 10.0 mi SSW 3.5 mph - N/A   Unknown
5:55 AM 59.2 °F - 52.0 °F 77% 29.87 in 10.0 mi SSW 3.5 mph - N/A   Unknown
6:15 AM 58.8 °F - 51.8 °F 77% 29.87 in 10.0 mi SSW 4.6 mph - N/A   Unknown
6:35 AM 58.3 °F - 52.2 °F 80% 29.88 in 10.0 mi Calm Calm - N/A   Unknown
6:55 AM 58.3 °F - 52.3 °F 81% 29.89 in 10.0 mi Calm Calm - N/A   Unknown
7:15 AM 57.2 °F - 51.8 °F 82% 29.89 in 10.0 mi South 3.5 mph - N/A   Unknown
7:35 AM 59.0 °F - 53.1 °F 81% 29.89 in 10.0 mi Calm Calm - N/A   Unknown
7:55 AM 62.1 °F - 54.5 °F 76% 29.90 in 10.0 mi South 4.6 mph - N/A   Unknown
8:15 AM 65.3 °F - 55.2 °F 70% 29.90 in 10.0 mi South 5.8 mph - N/A   Unknown
8:35 AM 66.6 °F - 55.4 °F 67% 29.90 in 10.0 mi South 8.1 mph - N/A   Unknown
8:55 AM 69.4 °F - 55.9 °F 62% 29.90 in 10.0 mi South 8.1 mph - N/A   Unknown
9:15 AM 71.4 °F - 55.9 °F 58% 29.90 in 10.0 mi South 9.2 mph - N/A   Unknown
9:35 AM 73.6 °F - 55.9 °F 54% 29.91 in 10.0 mi SSE 11.5 mph - N/A   Unknown
9:55 AM 75.0 °F - 55.8 °F 51% 29.91 in 10.0 mi South 9.2 mph 16.1 mph N/A   Unknown
10:15 AM 76.5 °F - 55.8 °F 49% 29.91 in 10.0 mi SSE 12.7 mph - N/A   Unknown
10:35 AM 77.2 °F - 55.9 °F 48% 29.91 in 10.0 mi South 10.4 mph 17.3 mph N/A   Unknown
10:55 AM 77.9 °F - 55.6 °F 46% 29.90 in 10.0 mi South 10.4 mph 17.3 mph N/A   Unknown
11:15 AM 79.9 °F - 55.8 °F 43% 29.90 in 10.0 mi South 11.5 mph 18.4 mph N/A   Unknown
11:35 AM 82.2 °F 81.6 °F 55.6 °F 40% 29.89 in 10.0 mi South 13.8 mph 23.0 mph N/A   Unknown
11:55 AM 83.8 °F 82.7 °F 54.9 °F 37% 29.89 in 10.0 mi South 13.8 mph 19.6 mph N/A   Unknown
12:15 PM 85.8 °F 84.2 °F 54.7 °F 34% 29.88 in 10.0 mi South 11.5 mph 19.6 mph N/A   Unknown
12:35 PM 86.2 °F 84.5 °F 55.0 °F 34% 29.86 in 10.0 mi South 11.5 mph 20.7 mph N/A   Unknown
12:55 PM 89.2 °F 87.3 °F 55.0 °F 31% 29.85 in 10.0 mi SSW 12.7 mph 23.0 mph N/A   Unknown
1:15 PM 90.1 °F 88.1 °F 54.3 °F 30% 29.84 in 10.0 mi South 12.7 mph 19.6 mph N/A   Unknown
1:35 PM 91.4 °F 88.9 °F 53.2 °F 27% 29.83 in 10.0 mi SSW 12.7 mph 19.6 mph N/A   Unknown
1:55 PM 93.2 °F - 50.9 °F 24% 29.82 in 10.0 mi South 13.8 mph 18.4 mph N/A   Unknown
2:15 PM 92.7 °F - 49.5 °F 23% 29.81 in 10.0 mi South 15.0 mph 27.6 mph N/A   Unknown
2:35 PM 94.3 °F - 48.4 °F 21% 29.80 in 10.0 mi SSE 15.0 mph 24.2 mph N/A   Unknown
2:55 PM 94.8 °F - 45.7 °F 18% 29.79 in 10.0 mi SSW 13.8 mph 25.3 mph N/A   Unknown
3:15 PM 95.4 °F - 43.0 °F 16% 29.78 in 10.0 mi SSW 12.7 mph 26.5 mph N/A   Unknown
3:35 PM 95.7 °F - 43.5 °F 17% 29.77 in 10.0 mi South 18.4 mph 24.2 mph N/A   Unknown
3:55 PM 96.6 °F - 42.1 °F 15% 29.76 in 10.0 mi South 15.0 mph 20.7 mph N/A   Unknown
4:15 PM 97.2 °F - 40.8 °F 14% 29.74 in 10.0 mi South 19.6 mph 23.0 mph N/A   Unknown
4:35 PM 97.5 °F - 39.6 °F 13% 29.73 in 10.0 mi South 10.4 mph 27.6 mph N/A   Unknown
4:55 PM 98.1 °F - 39.7 °F 13% 29.72 in 10.0 mi South 16.1 mph 25.3 mph N/A   Unknown
5:15 PM 97.5 °F - 39.2 °F 13% 29.72 in 10.0 mi South 12.7 mph 19.6 mph N/A   Unknown
5:35 PM 97.7 °F - 38.1 °F 13% 29.71 in 10.0 mi SSE 19.6 mph 25.3 mph N/A   Unknown
5:55 PM 97.2 °F - 38.7 °F 13% 29.71 in 10.0 mi South 17.3 mph 26.5 mph N/A   Unknown
6:15 PM 96.4 °F - 37.8 °F 13% 29.70 in 10.0 mi South 16.1 mph 29.9 mph N/A   Unknown
6:35 PM 96.1 °F - 38.3 °F 13% 29.70 in 10.0 mi South 16.1 mph 20.7 mph N/A   Unknown
6:55 PM 95.4 °F - 37.4 °F 13% 29.70 in 10.0 mi South 9.2 mph 18.4 mph N/A   Unknown
7:15 PM 94.5 °F - 39.2 °F 15% 29.70 in 10.0 mi South 15.0 mph 19.6 mph N/A   Unknown
7:35 PM 92.5 °F - 46.2 °F 20% 29.70 in 10.0 mi SSE 15.0 mph 20.7 mph N/A   Unknown
7:55 PM 91.0 °F - 46.2 °F 21% 29.70 in 10.0 mi SSE 16.1 mph - N/A   Unknown
8:15 PM 89.4 °F - 45.9 °F 22% 29.71 in 10.0 mi SSE 15.0 mph 18.4 mph N/A   Unknown
8:35 PM 87.4 °F - 47.5 °F 25% 29.72 in 10.0 mi SSE 16.1 mph 19.6 mph N/A   Unknown
8:55 PM 86.5 °F - 48.7 °F 27% 29.73 in 10.0 mi SSE 12.7 mph 18.4 mph N/A   Unknown
9:15 PM 86.0 °F - 50.9 °F 30% 29.74 in 10.0 mi SSE 13.8 mph 23.0 mph N/A   Unknown
9:35 PM 83.7 °F 82.4 °F 54.0 °F 36% 29.75 in 10.0 mi SSE 18.4 mph 23.0 mph N/A   Unknown
9:55 PM 82.9 °F 82.0 °F 55.0 °F 38% 29.76 in 10.0 mi SSE 18.4 mph 26.5 mph N/A   Unknown
10:15 PM 81.9 °F 81.3 °F 55.4 °F 40% 29.77 in 10.0 mi SSE 13.8 mph 25.3 mph N/A   Unknown
10:35 PM 80.8 °F 80.7 °F 55.6 °F 42% 29.77 in 10.0 mi SSE 11.5 mph 20.7 mph N/A   Unknown
10:55 PM 80.1 °F 80.3 °F 56.5 °F 44% 29.78 in 10.0 mi SSE 12.7 mph 20.7 mph N/A   Unknown
11:15 PM 79.3 °F - 57.7 °F 47% 29.78 in 10.0 mi SSE 15.0 mph 23.0 mph N/A   Unknown
11:35 PM 78.4 °F - 58.6 °F 50% 29.77 in 10.0 mi SSE 18.4 mph 23.0 mph N/A   Unknown
11:55 PM 77.9 °F - 59.4 °F 53% 29.77 in 10.0 mi SSE 15.0 mph 20.7 mph N/A   Unknown